GW7389 Weather Reports


Display with metric or nautical units.
time (UTC)temp
F
wind
direction
speed
MPH
gust
MPH
rain 1hr
in
rain 24hr
in
rain mn
in
humidity
%
barometer
mb
20260507220204 54 257 4.0 10.0 0.00 0.00 0.00 45 1008.4
20260507215659 56 273 11.0 15.0 0.00 0.00 0.00 40 1008.2
20260507215157 56 301 6.0 10.0 0.00 0.00 0.00 41 1008.1
20260507214654 56 262 7.0 11.0 0.00 0.00 0.00 39 1008.2
20260507214151 56 296 12.0 16.0 0.00 0.00 0.00 40 1008.1
20260507213646 56 311 4.0 14.0 0.00 0.00 0.00 43 1008.0
20260507213144 56 295 11.0 14.0 0.00 0.00 0.00 40 1008.1
20260507212640 54 300 6.0 10.0 0.00 0.00 0.00 43 1008.2
20260507212137 54 293 14.0 18.0 0.00 0.00 0.00 41 1008.2
20260507211634 54 293 11.0 13.0 0.00 0.00 0.00 42 1008.0
20260507211129 54 292 9.0 19.0 0.00 0.00 0.00 43 1007.9
20260507210627 54 300 6.0 7.0 0.00 0.00 0.00 44 1008.0
20260507210124 55 272 7.0 9.0 0.00 0.00 0.00 45 1007.9
20260507205620 55 323 7.0 9.0 0.00 0.00 0.00 43 1007.8
20260507205117 55 311 7.0 10.0 0.00 0.00 0.00 43 1008.1
20260507204613 55 269 5.0 9.0 0.00 0.00 0.00 42 1007.9
20260507204110 55 284 9.0 10.0 0.00 0.00 0.00 42 1008.0
20260507203608 55 269 8.0 10.0 0.00 0.00 0.00 42 1008.2
20260507203106 54 306 11.0 14.0 0.00 0.00 0.00 43 1008.0
20260507202601 54 284 5.0 10.0 0.00 0.00 0.00 44 1008.0
20260507202057 54 293 10.0 14.0 0.00 0.00 0.00 43 1008.0
20260507201553 54 273 6.0 14.0 0.00 0.00 0.00 42 1008.2
20260507201050 54 317 6.0 11.0 0.00 0.00 0.00 44 1008.3
20260507200545 54 302 12.0 15.0 0.00 0.00 0.00 42 1008.3
20260507200042 54 297 7.0 13.0 0.00 0.00 0.00 40 1008.3
20260507195539 55 259 7.0 9.0 0.00 0.00 0.00 43 1008.2
20260507195037 57 317 6.0 13.0 0.00 0.00 0.00 40 1008.1
20260507194532 58 296 5.0 11.0 0.00 0.00 0.00 44 1008.2
20260507194029 56 264 5.0 10.0 0.00 0.00 0.00 42 1008.1
20260507193526 56 247 11.0 17.0 0.00 0.00 0.00 42 1008.3
20260507193022 56 286 6.0 14.0 0.00 0.00 0.00 43 1008.3
20260507192519 55 296 9.0 10.0 0.00 0.00 0.00 47 1008.4
20260507192016 55 261 7.0 8.0 0.00 0.00 0.00 43 1008.3
20260507191511 55 290 6.0 11.0 0.00 0.00 0.00 44 1008.3
20260507191008 55 221 3.0 11.0 0.00 0.00 0.00 43 1008.5
20260507190506 55 281 9.0 14.0 0.00 0.00 0.00 40 1008.5
20260507190006 55 272 10.0 14.0 0.00 0.00 0.00 41 1008.5
20260507185502 54 273 6.0 13.0 0.00 0.00 0.00 46 1008.6
20260507184958 54 313 11.0 14.0 0.00 0.00 0.00 43 1008.5
20260507184457 54 291 9.0 14.0 0.00 0.00 0.00 46 1008.7
20260507183954 54 267 8.0 15.0 0.00 0.00 0.00 45 1008.6
20260507183450 54 258 8.0 13.0 0.00 0.00 0.00 44 1008.6
20260507182948 54 292 6.0 11.0 0.00 0.00 0.00 45 1008.5
20260507182443 54 289 9.0 15.0 0.00 0.00 0.00 42 1008.7
20260507181939 54 298 14.0 21.0 0.00 0.00 0.00 41 1008.6
20260507181436 55 280 9.0 13.0 0.00 0.00 0.00 42 1008.5
20260507180933 55 270 11.0 15.0 0.00 0.00 0.00 41 1008.5
20260507180430 56 282 10.0 13.0 0.00 0.00 0.00 40 1008.7
20260507175925 55 242 10.0 14.0 0.00 0.00 0.00 40 1008.5
20260507175422 55 267 8.0 13.0 0.00 0.00 0.00 40 1008.9
20260507174920 55 282 8.0 10.0 0.00 0.00 0.00 43 1008.6
20260507174417 55 321 6.0 11.0 0.00 0.00 0.00 47 1008.9
20260507173915 53 257 4.0 6.0 0.00 0.00 0.00 45 1009.0
20260507173412 54 254 5.0 10.0 0.00 0.00 0.00 44 1009.1
20260507172908 54 285 10.0 13.0 0.00 0.00 0.00 45 1009.2
20260507172405 55 239 5.0 11.0 0.00 0.00 0.00 46 1009.1
20260507171901 56 312 2.0 10.0 0.00 0.00 0.00 38 1009.3
20260507171357 56 294 14.0 16.0 0.00 0.00 0.00 42 1009.2
20260507170855 56 272 7.0 9.0 0.00 0.00 0.00 49 1009.3
20260507170351 55 321 8.0 11.0 0.00 0.00 0.00 46 1009.4
20260507165847 54 250 6.0 11.0 0.00 0.00 0.00 51 1009.3
20260507165343 53 276 3.0 6.0 0.00 0.00 0.00 47 1009.4
20260507164839 53 273 10.0 10.0 0.00 0.00 0.00 45 1009.4
20260507164337 54 303 4.0 7.0 0.00 0.00 0.00 48 1009.6
20260507163833 54 283 7.0 9.0 0.00 0.00 0.00 46 1009.6
20260507163331 55 321 8.0 15.0 0.00 0.00 0.00 45 1009.6
20260507162827 54 244 1.0 8.0 0.00 0.00 0.00 44 1009.6
20260507162323 53 258 6.0 9.0 0.00 0.00 0.00 47 1009.6
20260507161820 54 272 6.0 8.0 0.00 0.00 0.00 46 1009.6
20260507161317 53 213 1.0 8.0 0.00 0.00 0.00 47 1009.8
20260507160813 55 239 6.0 7.0 0.00 0.00 0.00 43 1009.7
20260507160309 55 266 8.0 10.0 0.00 0.00 0.00 42 1009.6
20260507155805 55 259 5.0 8.0 0.00 0.00 0.00 49 1009.7
20260507155305 53 245 9.0 10.0 0.00 0.00 0.00 43 1009.7
20260507154758 53 264 9.0 10.0 0.00 0.00 0.00 46 1010.0
20260507154256 54 151 1.0 6.0 0.00 0.00 0.00 48 1010.0
20260507153752 51 297 6.0 8.0 0.00 0.00 0.00 47 1009.9
20260507153248 52 256 7.0 9.0 0.00 0.00 0.00 43 1010.1
20260507152745 53 269 7.0 14.0 0.00 0.00 0.00 45 1010.0
20260507152242 52 265 8.0 11.0 0.00 0.00 0.00 44 1010.2
20260507151737 51 288 8.0 14.0 0.00 0.00 0.00 48 1010.1
20260507151234 51 294 9.0 13.0 0.00 0.00 0.00 47 1010.3
20260507150731 52 246 6.0 16.0 0.00 0.00 0.00 47 1010.2
20260507150228 53 273 7.0 11.0 0.00 0.00 0.00 48 1010.4
20260507145724 53 295 8.0 10.0 0.00 0.00 0.00 47 1010.4
20260507145221 52 290 5.0 9.0 0.00 0.00 0.00 48 1010.3
20260507144718 53 260 8.0 10.0 0.00 0.00 0.00 49 1010.4
20260507144215 52 300 5.0 7.0 0.00 0.00 0.00 50 1010.5
20260507143712 52 247 5.0 8.0 0.00 0.00 0.00 46 1010.6
20260507143209 52 310 6.0 10.0 0.00 0.00 0.00 47 1010.7
20260507142704 52 256 7.0 11.0 0.00 0.00 0.00 46 1010.6
20260507142202 52 267 4.0 9.0 0.00 0.00 0.00 51 1010.7
20260507141657 53 248 6.0 8.0 0.00 0.00 0.00 50 1010.6
20260507141154 53 298 4.0 8.0 0.00 0.00 0.00 53 1010.9
20260507140651 52 274 4.0 6.0 0.00 0.00 0.00 55 1010.8
20260507140149 51 279 4.0 4.0 0.00 0.00 0.00 53 1011.0
20260507135645 51 311 9.0 11.0 0.00 0.00 0.00 48 1011.0
20260507135143 51 231 4.0 11.0 0.00 0.00 0.00 52 1010.9
20260507134639 50 301 7.0 11.0 0.00 0.00 0.00 54 1011.0
20260507134135 51 295 6.0 9.0 0.00 0.00 0.00 58 1010.9
20260507133631 50 266 6.0 9.0 0.00 0.00 0.00 54 1010.9
20260507133129 50 281 8.0 11.0 0.00 0.00 0.00 53 1011.0
20260507132626 50 242 6.0 13.0 0.00 0.00 0.00 55 1011.0
20260507132122 50 275 7.0 10.0 0.00 0.00 0.00 56 1010.8
20260507131619 49 232 5.0 8.0 0.00 0.00 0.00 56 1011.2
20260507131117 49 218 4.0 13.0 0.00 0.00 0.00 57 1010.8
20260507130613 49 246 6.0 8.0 0.00 0.00 0.00 58 1010.9
20260507130111 48 241 8.0 10.0 0.00 0.00 0.00 59 1010.9
20260507125610 48 279 6.0 11.0 0.00 0.00 0.00 58 1011.2
20260507125106 48 239 3.0 8.0 0.00 0.00 0.00 61 1011.0
20260507124603 48 259 6.0 7.0 0.00 0.00 0.00 60 1011.2
20260507124101 47 250 4.0 6.0 0.00 0.00 0.00 59 1010.9
20260507123559 47 173 3.0 4.0 0.00 0.00 0.00 61 1010.9
20260507123055 47 246 2.0 7.0 0.00 0.00 0.00 64 1011.0
20260507122550 47 268 3.0 4.0 0.00 0.00 0.00 62 1011.2
20260507122046 46 231 2.0 2.0 0.00 0.00 0.00 65 1011.2
20260507121542 46 241 3.0 3.0 0.00 0.00 0.00 63 1010.9
20260507121038 45 235 1.0 3.0 0.00 0.00 0.00 67 1011.0
20260507120535 45 218 1.0 2.0 0.00 0.00 0.00 67 1011.2
20260507120032 45 223 2.0 4.0 0.00 0.00 0.00 64 1011.2
20260507115528 45 211 0.0 1.0 0.00 0.00 0.00 69 1011.2
20260507115024 44 211 0.0 1.0 0.00 0.00 0.00 73 1011.2
20260507114520 44 211 0.0 1.0 0.00 0.00 0.00 74 1010.8
20260507114017 45 211 0.0 1.0 0.00 0.00 0.00 71 1011.2
20260507113514 44 211 0.0 0.0 0.00 0.00 0.00 73 1010.8
20260507113012 43 211 0.0 0.0 0.00 0.00 0.00 75 1010.8
20260507112509 42 211 0.0 0.0 0.00 0.00 0.00 77 1010.9
20260507112006 41 211 1.0 1.0 0.00 0.00 0.00 74 1010.9
20260507111504 41 212 0.0 1.0 0.00 0.00 0.00 74 1010.9
20260507110959 41 212 0.0 0.0 0.00 0.00 0.00 75 1010.8
20260507110456 41 212 0.0 0.0 0.00 0.00 0.00 74 1010.9
20260507105952 41 213 0.0 0.0 0.00 0.00 0.00 73 1011.0
20260507105449 40 213 0.0 0.0 0.00 0.00 0.00 78 1010.8
20260507104946 38 213 0.0 0.0 0.00 0.00 0.00 83 1010.7
20260507104443 37 213 0.0 0.0 0.00 0.00 0.00 80 1010.8
20260507103938 37 292 0.0 0.0 0.00 0.00 0.00 81 1010.7
20260507103435 37 292 0.0 0.0 0.00 0.00 0.00 82 1010.6
20260507102931 37 292 0.0 0.0 0.00 0.00 0.00 80 1010.7
20260507102428 37 292 0.0 0.0 0.00 0.00 0.00 80 1010.5
20260507101925 37 292 0.0 0.0 0.00 0.00 0.00 79 1010.7
20260507101420 37 292 0.0 0.0 0.00 0.00 0.00 76 1010.7
20260507100917 36 292 0.0 0.0 0.00 0.00 0.00 79 1010.7
20260507100414 35 292 0.0 0.0 0.00 0.00 0.00 84 1010.5
20260507095913 35 292 0.0 0.0 0.00 0.00 0.00 83 1010.4
20260507095409 35 292 0.0 0.0 0.00 0.00 0.00 83 1010.4
20260507094907 36 292 0.0 0.0 0.00 0.00 0.00 81 1010.6
20260507094403 37 292 0.0 0.0 0.00 0.00 0.00 79 1010.6
20260507093900 37 292 0.0 0.0 0.00 0.00 0.00 81 1010.4
20260507093358 37 292 0.0 0.0 0.00 0.00 0.00 82 1010.4
20260507092856 37 292 0.0 0.0 0.00 0.00 0.00 82 1010.5
20260507092352 37 292 0.0 0.0 0.00 0.00 0.00 82 1010.7
20260507091848 37 292 0.0 0.0 0.00 0.00 0.00 82 1010.7
20260507091345 37 292 0.0 0.0 0.00 0.00 0.00 81 1010.6
20260507090840 37 292 0.0 0.0 0.00 0.00 0.00 85 1010.5
20260507090337 37 292 0.0 0.0 0.00 0.00 0.00 83 1010.6
20260507085834 36 292 0.0 0.0 0.00 0.00 0.00 84 1010.7
20260507085331 36 292 0.0 0.0 0.00 0.00 0.00 85 1010.7
20260507084828 36 292 0.0 0.0 0.00 0.00 0.00 87 1010.9
20260507084324 37 292 0.0 0.0 0.00 0.00 0.00 86 1010.8
20260507083822 37 292 0.0 0.0 0.00 0.00 0.00 84 1010.7
20260507083318 37 292 0.0 0.0 0.00 0.00 0.00 84 1010.6
20260507082814 37 292 0.0 0.0 0.00 0.00 0.00 85 1010.8
20260507082310 38 292 0.0 0.0 0.00 0.00 0.00 83 1010.9
20260507081808 38 292 0.0 0.0 0.00 0.00 0.00 82 1010.8
20260507081303 39 292 0.0 0.0 0.00 0.00 0.00 83 1010.8
20260507080800 39 292 0.0 1.0 0.00 0.00 0.00 81 1010.9
20260507080257 39 292 1.0 1.0 0.00 0.00 0.00 78 1010.7
20260507075752 39 292 1.0 1.0 0.00 0.00 0.00 78 1010.9
20260507075248 40 292 1.0 1.0 0.00 0.00 0.00 75 1010.9
20260507074744 39 293 1.0 1.0 0.00 0.00 0.00 75 1010.9
20260507074243 39 294 1.0 1.0 0.00 0.00 0.00 81 1011.0
20260507073739 39 294 1.0 2.0 0.00 0.00 0.00 82 1011.0
20260507073236 40 294 1.0 1.0 0.00 0.00 0.00 75 1010.9
20260507072734 39 294 1.0 1.0 0.00 0.00 0.00 75 1010.8
20260507072231 39 294 0.0 0.0 0.00 0.00 0.00 76 1011.0
20260507071728 40 294 1.0 1.0 0.00 0.00 0.00 78 1010.9
20260507071224 41 294 1.0 1.0 0.00 0.00 0.00 71 1010.9
20260507070722 41 294 1.0 1.0 0.00 0.00 0.00 69 1010.8
20260507070218 41 294 1.0 1.0 0.00 0.00 0.00 70 1010.7
20260507065714 40 294 0.0 0.0 0.00 0.00 0.00 73 1010.8
20260507065212 41 294 0.0 0.0 0.00 0.00 0.00 74 1010.9
20260507064709 41 294 0.0 0.0 0.00 0.00 0.00 70 1011.2
20260507064208 41 294 0.0 0.0 0.00 0.00 0.00 71 1011.2
20260507063705 42 294 1.0 1.0 0.00 0.00 0.00 69 1011.0
20260507063201 41 294 1.0 1.0 0.00 0.00 0.00 71 1011.2
20260507062658 41 294 0.0 0.0 0.00 0.00 0.00 72 1011.2
20260507062156 42 294 1.0 1.0 0.00 0.00 0.00 70 1011.2
20260507061654 41 294 1.0 1.0 0.00 0.00 0.00 68 1011.3
20260507061152 41 294 1.0 1.0 0.00 0.00 0.00 73 1011.3
20260507060649 41 295 1.0 1.0 0.00 0.00 0.00 75 1011.5
20260507060145 41 294 1.0 1.0 0.00 0.00 0.00 69 1011.6
20260507055641 41 295 0.0 0.0 0.00 0.00 0.00 70 1011.4
20260507055137 41 294 0.0 0.0 0.00 0.00 0.00 71 1011.4
20260507054633 42 294 0.0 1.0 0.00 0.00 0.00 70 1011.4
20260507054131 42 295 0.0 0.0 0.00 0.00 0.00 69 1011.6
20260507053628 42 295 0.0 1.0 0.00 0.00 0.00 67 1011.4
20260507053126 42 295 0.0 1.0 0.00 0.00 0.00 66 1011.8
20260507052624 42 295 0.0 1.0 0.00 0.00 0.00 67 1011.6
20260507052120 43 295 1.0 1.0 0.00 0.00 0.00 66 1011.7
20260507051618 43 296 2.0 2.0 0.00 0.00 0.00 64 1011.8
20260507051115 43 298 2.0 2.0 0.00 0.00 0.00 65 1011.8
20260507050612 43 300 3.0 2.0 0.00 0.00 0.00 65 1011.9
20260507050108 43 304 2.0 3.0 0.00 0.00 0.00 66 1011.9
20260507045605 43 316 3.0 4.0 0.00 0.00 0.00 66 1011.9
20260507045102 43 307 3.0 3.0 0.00 0.00 0.00 68 1011.9
20260507044559 43 297 2.0 4.0 0.00 0.00 0.00 67 1011.9
20260507044056 43 308 1.0 3.0 0.00 0.00 0.00 69 1011.8
20260507043551 43 314 2.0 2.0 0.00 0.00 0.00 69 1011.8
20260507043049 43 314 2.0 3.0 0.00 0.00 0.00 68 1012.0
20260507042544 43 312 2.0 3.0 0.00 0.00 0.00 68 1011.9
20260507042040 43 306 2.0 3.0 0.00 0.00 0.00 67 1011.9
20260507041537 43 306 2.0 4.0 0.00 0.00 0.00 68 1012.0
20260507041034 43 299 2.0 2.0 0.00 0.00 0.00 67 1012.0
20260507040531 43 298 2.0 2.0 0.00 0.00 0.00 67 1011.8
20260507040027 43 311 2.0 2.0 0.00 0.50 0.50 67 1011.9
20260507035523 43 314 2.0 3.0 0.00 0.50 0.50 68 1011.9
20260507035020 43 312 4.0 6.0 0.00 0.50 0.50 67 1011.8
20260507034517 43 311 2.0 3.0 0.00 0.50 0.50 68 1011.7
20260507034015 43 308 1.0 2.0 0.00 0.50 0.50 68 1011.8
20260507033512 43 310 2.0 3.0 0.00 0.50 0.50 67 1011.7
20260507033009 43 308 2.0 3.0 0.00 0.50 0.50 67 1011.9
20260507032506 43 321 1.0 1.0 0.00 0.50 0.50 68 1011.8
20260507032002 43 321 2.0 2.0 0.00 0.50 0.50 67 1011.7
20260507031458 43 315 3.0 2.0 0.00 0.50 0.50 67 1011.7
20260507030955 44 313 2.0 3.0 0.00 0.50 0.50 67 1011.8
20260507030452 44 307 1.0 2.0 0.00 0.50 0.50 66 1011.8
20260507025950 44 307 2.0 3.0 0.00 0.50 0.50 66 1011.9
20260507025447 44 314 1.0 2.0 0.00 0.50 0.50 66 1011.9
20260507024945 44 318 2.0 2.0 0.00 0.50 0.50 66 1011.8
20260507024442 44 316 1.0 3.0 0.00 0.50 0.50 65 1011.5
20260507023937 44 312 3.0 3.0 0.00 0.50 0.50 64 1011.5
20260507023435 44 318 2.0 4.0 0.00 0.50 0.50 63 1011.6
20260507022932 44 325 2.0 2.0 0.00 0.50 0.50 65 1011.5
20260507022429 44 11 2.0 2.0 0.00 0.50 0.50 63 1011.2
20260507021924 44 17 1.0 2.0 0.00 0.50 0.50 62 1011.3
20260507021420 44 24 1.0 2.0 0.00 0.50 0.50 63 1011.4
20260507020918 44 24 1.0 2.0 0.00 0.50 0.50 61 1011.3
20260507020414 45 28 2.0 2.0 0.00 0.50 0.50 62 1011.2
20260507015911 45 47 0.0 3.0 0.00 0.50 0.50 61 1011.3
20260507015409 45 40 0.0 1.0 0.00 0.50 0.50 61 1011.2
20260507014906 45 33 2.0 2.0 0.00 0.50 0.50 62 1011.4
20260507014402 45 35 1.0 2.0 0.00 0.50 0.50 63 1011.2
20260507013859 45 344 0.0 0.0 0.00 0.50 0.50 62 1011.2
20260507013356 45 344 0.0 1.0 0.00 0.50 0.50 61 1011.2
20260507012853 46 344 0.0 0.0 0.00 0.50 0.50 60 1011.0
20260507012349 46 344 1.0 1.0 0.00 0.50 0.50 60 1011.2
20260507011847 46 344 0.0 0.0 0.00 0.50 0.50 60 1011.3
20260507011344 46 344 0.0 0.0 0.00 0.50 0.50 60 1011.0
20260507010843 46 344 0.0 0.0 0.00 0.50 0.50 59 1011.3
20260507010339 46 344 0.0 0.0 0.00 0.50 0.50 60 1011.3
20260507005837 46 344 1.0 1.0 0.00 0.50 0.50 57 1011.0
20260507005333 46 343 1.0 1.0 0.00 0.50 0.50 58 1011.2
20260507004830 47 315 4.0 4.0 0.00 0.50 0.50 53 1011.3
20260507004327 47 315 4.0 4.0 0.00 0.50 0.50 53 1011.3
20260507003824 47 315 4.0 4.0 0.00 0.50 0.50 53 1011.0
20260507003320 47 315 4.0 4.0 0.00 0.50 0.50 53 1011.0
20260507002815 47 315 4.0 4.0 0.00 0.50 0.50 53 1011.0
20260507002311 47 315 4.0 4.0 0.00 0.50 0.50 53 1011.2
20260507001808 47 315 4.0 4.0 0.00 0.50 0.50 53 1011.2
20260507001306 47 315 4.0 4.0 0.00 0.50 0.50 53 1011.5
20260507000802 47 315 4.0 4.0 0.00 0.50 0.50 53 1011.5
20260507000259 48 323 9.0 10.0 0.00 0.50 0.50 51 1011.4
20260506235754 48 323 9.0 10.0 0.00 0.50 0.50 51 1011.4
20260506235250 48 323 9.0 10.0 0.00 0.50 0.50 51 1011.2
20260506234748 48 323 9.0 10.0 0.00 0.50 0.50 51 1011.3
20260506234244 48 295 6.0 10.0 0.00 0.50 0.50 52 1011.2
20260506233742 48 295 4.0 3.0 0.00 0.50 0.50 54 1011.2
20260506233238 48 295 4.0 3.0 0.00 0.50 0.50 54 1011.0
20260506232735 48 295 4.0 3.0 0.00 0.50 0.50 54 1010.7
20260506232230 49 330 6.0 8.0 0.00 0.50 0.50 52 1010.7
20260506231727 49 330 6.0 8.0 0.00 0.50 0.50 52 1010.5
20260506231225 49 320 6.0 7.0 0.00 0.50 0.50 54 1010.7
20260506230722 49 301 6.0 7.0 0.00 0.50 0.50 53 1010.5
20260506230219 49 318 2.0 2.0 0.00 0.50 0.50 55 1010.4
20260506225715 49 312 2.0 2.0 0.00 0.50 0.50 58 1010.3
20260506225212 49 314 4.0 6.0 0.00 0.50 0.50 54 1010.1
20260506224709 50 311 6.0 7.0 0.00 0.50 0.50 53 1010.0
20260506224206 49 308 5.0 6.0 0.00 0.50 0.50 54 1010.0
20260506223702 50 303 7.0 9.0 0.00 0.50 0.50 51 1009.8
20260506223158 50 297 4.0 6.0 0.00 0.50 0.50 53 1010.0
20260506222655 50 284 8.0 9.0 0.00 0.50 0.50 52 1010.0
20260506222151 50 302 7.0 7.0 0.00 0.50 0.50 53 1010.1
20260506221649 50 302 7.0 7.0 0.00 0.50 0.50 53 1009.9
20260506221147 50 302 7.0 7.0 0.00 0.50 0.50 53 1009.8
20260506220643 50 302 7.0 7.0 0.00 0.50 0.50 53 1009.8